Temp
-14 -14 -14 -15 -15 -15 -16 -17 -17 -18 -19 -19 -20 -20 -21 -22 -23 -23 -23 -23 -24 -24 -23 -23 -23 -23 -24 -23 -22 -23 -23 -22 -21 -21 -20 -21 -21 -21 -23 -23 -21 -20 -19 -17
-14 -15 -15 -15 -16 -17 -17 -18 -19 -19 -20 -20 -21 -21 -22 -23 -24 -26 -26 -26 -26 -26 -26 -26 -25 -25 -24 -25 -25 -24 -24 -25 -24 -22 -22 -23 -25 -24 -23 -23 -23 -21 -21 -18
-15 -16 -16 -17 -18 -19 -19 -20 -20 -21 -22 -22 -23 -24 -26 -27 -28 -29 -30 -30 -30 -29 -29 -29 -28 -27 -27 -27 -27 -27 -27 -26 -26 -25 -24 -25 -26 -26 -25 -25 -23 -23 -22 -19
-16 -17 -18 -19 -19 -20 -20 -21 -22 -23 -24 -26 -28 -30 -31 -32 -33 -34 -34 -33 -33 -33 -32 -32 -32 -32 -31 -31 -31 -31 -31 -29 -29 -28 -27 -26 -27 -26 -26 -26 -25 -24 -23 -21
-17 -18 -19 -20 -20 -21 -22 -23 -25 -26 -28 -30 -32 -34 -34 -35 -35 -35 -35 -35 -35 -35 -35 -35 -34 -34 -34 -33 -33 -34 -34 -33 -33 -31 -30 -31 -29 -28 -28 -27 -26 -26 -24 -24
-18 -20 -20 -20 -21 -22 -23 -26 -28 -30 -32 -34 -34 -34 -35 -35 -35 -35 -35 -35 -35 -35 -35 -35 -35 -35 -35 -35 -35 -35 -35 -35 -35 -33 -33 -33 -32 -28 -28 -28 -27 -26 -26 -24
-20 -20 -21 -21 -22 -24 -27 -29 -31 -33 -34 -34 -35 -35 -35 -35 -35 -35 -35 -35 -35 -35 -35 -35 -35 -35 -35 -35 -35 -35 -34 -34 -34 -34 -34 -33 -32 -31 -31 -31 -28 -28 -26 -25
-20 -21 -21 -22 -24 -26 -29 -31 -33 -34 -34 -35 -35 -35 -35 -35 -36 -36 -35 -35 -35 -35 -35 -35 -35 -35 -35 -35 -35 -34 -34 -34 -34 -34 -33 -32 -32 -33 -32 -32 -31 -29 -27 -26
-21 -21 -22 -24 -26 -29 -31 -32 -34 -34 -34 -34 -35 -35 -35 -35 -35 -35 -35 -35 -35 -35 -35 -35 -35 -35 -35 -34 -34 -34 -34 -33 -34 -34 -33 -33 -32 -32 -32 -32 -31 -31 -30 -28
-21 -22 -23 -25 -28 -31 -32 -33 -33 -34 -34 -34 -35 -35 -35 -35 -35 -35 -35 -35 -35 -35 -35 -35 -35 -35 -35 -34 -34 -33 -33 -33 -33 -33 -32 -32 -32 -30 -30 -31 -30 -30 -30 -30
-22 -23 -25 -27 -30 -32 -33 -33 -33 -34 -34 -34 -35 -35 -35 -35 -35 -35 -35 -35 -34 -35 -35 -35 -35 -35 -35 -34 -34 -33 -33 -32 -31 -31 -31 -31 -31 -31 -30 -30 -30 -30 -31 -31
-23 -24 -26 -29 -32 -32 -33 -33 -33 -33 -33 -34 -34 -34 -34 -34 -34 -34 -34 -35 -35 -35 -35 -35 -35 -35 -34 -34 -34 -33 -33 -32 -31 -31 -31 -31 -31 -30 -30 -30 -29 -30 -30 -31
-24 -26 -27 -31 -33 -33 -33 -33 -33 -33 -34 -34 -34 -34 -34 -34 -33 -33 -33 -33 -34 -34 -35 -34 -35 -34 -33 -33 -33 -33 -32 -32 -31 -32 -32 -31 -31 -30 -30 -29 -29 -30 -30 -30
-25 -27 -29 -32 -33 -33 -33 -33 -33 -33 -34 -34 -34 -34 -34 -33 -33 -32 -32 -32 -33 -33 -33 -33 -33 -34 -33 -33 -33 -33 -32 -32 -32 -32 -30 -30 -30 -30 -29 -29 -29 -29 -28 -29
-26 -27 -30 -33 -34 -34 -34 -33 -33 -34 -34 -34 -34 -34 -34 -33 -32 -32 -32 -32 -32 -33 -33 -33 -33 -33 -33 -34 -32 -31 -30 -31 -29 -29 -29 -29 -29 -29 -28 -28 -28 -28 -28 -27
-26 -28 -31 -33 -34 -34 -34 -34 -34 -34 -34 -34 -34 -34 -33 -33 -32 -32 -32 -32 -32 -33 -32 -32 -32 -33 -34 -32 -31 -32 -33 -32 -31 -30 -29 -28 -28 -29 -28 -28 -28 -28 -27 -27
-27 -28 -32 -34 -35 -35 -34 -34 -34 -34 -34 -34 -34 -34 -33 -33 -33 -32 -32 -32 -32 -33 -32 -32 -33 -33 -33 -32 -32 -33 -33 -33 -32 -32 -31 -30 -30 -28 -28 -28 -28 -27 -27 -26
-27 -29 -32 -35 -35 -35 -35 -35 -34 -34 -34 -34 -34 -34 -33 -33 -32 -33 -32 -32 -32 -33 -33 -33 -33 -33 -33 -32 -32 -33 -33 -33 -32 -31 -30 -29 -30 -29 -29 -28 -27 -27 -27 -26
-27 -29 -32 -34 -35 -35 -35 -35 -35 -35 -34 -34 -34 -34 -33 -33 -33 -33 -33 -33 -33 -33 -34 -34 -34 -33 -33 -32 -33 -33 -33 -33 -32 -32 -32 -31 -31 -30 -29 -29 -28 -27 -26 -26
-28 -29 -32 -34 -35 -35 -35 -35 -35 -35 -35 -34 -34 -34 -34 -33 -33 -33 -33 -33 -34 -34 -34 -33 -34 -33 -32 -32 -32 -32 -32 -32 -32 -32 -32 -31 -31 -30 -29 -29 -28 -28 -27 -27
-28 -29 -31 -33 -35 -35 -35 -35 -36 -35 -35 -35 -34 -34 -34 -34 -33 -33 -33 -33 -33 -33 -34 -33 -33 -33 -33 -32 -32 -32 -32 -32 -32 -32 -31 -31 -30 -30 -30 -29 -29 -29 -28 -28
-28 -28 -30 -33 -34 -35 -35 -36 -35 -35 -35 -35 -35 -34 -34 -34 -34 -34 -33 -33 -33 -33 -33 -33 -33 -34 -33 -33 -33 -32 -32 -32 -32 -31 -31 -31 -31 -30 -30 -30 -29 -29 -29 -29
-28 -29 -30 -32 -33 -34 -35 -35 -36 -36 -35 -35 -35 -35 -34 -34 -34 -34 -34 -34 -33 -33 -33 -33 -33 -33 -33 -33 -33 -33 -32 -32 -32 -32 -31 -31 -31 -31 -30 -30 -30 -30 -29 -29
-28 -29 -29 -30 -32 -33 -33 -34 -35 -35 -35 -35 -35 -35 -34 -34 -34 -34 -34 -34 -34 -34 -33 -33 -33 -33 -33 -33 -33 -33 -32 -32 -32 -32 -31 -31 -31 -31 -31 -30 -30 -30 -30 -30
-29 -29 -30 -30 -31 -32 -33 -33 -33 -34 -34 -35 -35 -35 -35 -34 -35 -35 -35 -35 -34 -34 -34 -34 -33 -33 -33 -33 -33 -32 -32 -32 -32 -32 -32 -32 -31 -31 -31 -31 -30 -30 -30 -30
-29 -29 -30 -30 -31 -31 -31 -32 -33 -33 -33 -34 -34 -34 -34 -35 -35 -35 -35 -35 -35 -35 -35 -34 -34 -34 -34 -34 -33 -33 -33 -33 -33 -33 -32 -32 -32 -31 -31 -31 -31 -31 -30 -30
-28 -29 -30 -30 -31 -31 -31 -32 -32 -32 -33 -33 -33 -33 -34 -34 -34 -34 -34 -34 -35 -35 -35 -35 -35 -35 -34 -34 -34 -34 -34 -33 -33 -33 -33 -33 -32 -32 -32 -31 -31 -31 -31 -30
Height
5679 5668 5657 5647 5636 5627 5615 5606 5596 5586 5574 5564 5554 5544 5535 5527 5520 5518 5518 5516 5511 5510 5508 5508 5509 5508 5504 5503 5506 5509 5511 5513 5521 5531 5539 5540 5544 5544 5548 5547 5554 5558 5566 5576
5667 5656 5644 5632 5620 5608 5599 5587 5573 5563 5551 5537 5528 5516 5509 5501 5495 5490 5486 5485 5482 5483 5484 5483 5483 5483 5487 5483 5485 5488 5491 5490 5494 5509 5523 5527 5522 5528 5527 5528 5532 5540 5543 5564
5656 5643 5631 5618 5605 5590 5577 5563 5550 5537 5521 5508 5498 5487 5481 5474 5469 5465 5461 5461 5461 5459 5459 5458 5459 5460 5463 5460 5461 5465 5465 5469 5475 5481 5493 5495 5496 5504 5510 5509 5516 5518 5523 5545
5645 5631 5617 5603 5587 5571 5554 5536 5520 5504 5495 5486 5474 5465 5459 5456 5454 5451 5449 5448 5446 5444 5443 5444 5444 5442 5444 5445 5447 5446 5446 5448 5454 5458 5462 5468 5472 5480 5490 5490 5497 5499 5518 5517
5631 5617 5599 5584 5569 5551 5531 5515 5496 5482 5473 5465 5459 5455 5453 5450 5448 5445 5443 5440 5438 5437 5436 5434 5433 5434 5435 5435 5437 5435 5437 5434 5437 5436 5442 5443 5448 5460 5468 5473 5477 5480 5491 5495
5617 5601 5585 5566 5545 5525 5507 5489 5476 5464 5461 5458 5456 5451 5447 5444 5440 5440 5436 5432 5430 5430 5429 5427 5428 5428 5428 5428 5427 5429 5428 5427 5428 5425 5433 5433 5428 5446 5451 5456 5463 5460 5461 5482
5603 5586 5568 5546 5526 5505 5485 5472 5464 5458 5455 5452 5448 5444 5439 5436 5433 5428 5428 5426 5425 5425 5423 5422 5423 5423 5423 5423 5424 5423 5423 5423 5424 5423 5425 5422 5430 5431 5427 5423 5435 5443 5445 5460
5589 5570 5549 5528 5509 5492 5476 5465 5459 5453 5449 5444 5442 5438 5435 5432 5428 5427 5426 5425 5423 5422 5420 5419 5420 5421 5421 5420 5420 5420 5421 5421 5420 5419 5418 5417 5420 5417 5415 5411 5411 5422 5430 5439
5574 5554 5533 5512 5496 5481 5468 5461 5455 5449 5446 5443 5438 5434 5432 5430 5428 5426 5425 5423 5421 5421 5419 5419 5419 5419 5419 5419 5418 5419 5419 5418 5416 5414 5410 5408 5409 5408 5407 5402 5395 5408 5404 5410
5561 5539 5519 5501 5486 5474 5464 5458 5452 5448 5444 5441 5438 5436 5433 5430 5428 5426 5424 5423 5422 5420 5420 5420 5420 5419 5418 5416 5416 5416 5414 5413 5411 5409 5404 5404 5399 5397 5398 5391 5393 5391 5393 5397
5548 5527 5508 5492 5479 5470 5463 5456 5452 5448 5444 5441 5438 5435 5433 5430 5427 5425 5423 5423 5421 5421 5420 5420 5419 5418 5417 5414 5412 5410 5408 5405 5404 5402 5399 5398 5394 5393 5387 5384 5382 5380 5379 5383
5536 5516 5500 5485 5475 5467 5460 5455 5451 5447 5445 5442 5438 5436 5433 5429 5425 5422 5421 5419 5418 5419 5419 5420 5419 5416 5415 5414 5411 5408 5403 5399 5397 5396 5393 5390 5388 5385 5381 5375 5371 5370 5372 5378
5526 5507 5493 5481 5472 5465 5460 5455 5451 5448 5445 5442 5439 5436 5434 5428 5422 5420 5417 5416 5418 5418 5418 5418 5419 5414 5414 5412 5408 5403 5398 5396 5393 5392 5389 5388 5386 5384 5381 5376 5370 5368 5371 5369
5518 5502 5489 5479 5471 5464 5459 5455 5452 5449 5446 5443 5440 5437 5432 5428 5424 5422 5420 5419 5419 5419 5418 5418 5417 5416 5413 5410 5407 5405 5400 5397 5395 5391 5387 5387 5385 5383 5380 5381 5378 5377 5376 5380
5513 5498 5486 5478 5472 5466 5460 5455 5451 5449 5447 5444 5441 5438 5434 5431 5428 5425 5423 5422 5421 5420 5419 5418 5417 5416 5413 5409 5408 5403 5399 5395 5394 5391 5390 5389 5388 5384 5382 5381 5385 5386 5388 5394
5509 5495 5483 5477 5472 5468 5463 5458 5453 5449 5447 5445 5443 5440 5437 5433 5430 5428 5426 5425 5423 5422 5420 5420 5418 5417 5414 5413 5409 5403 5401 5398 5396 5393 5392 5389 5388 5388 5386 5385 5388 5393 5397 5402
5505 5492 5481 5476 5472 5468 5463 5458 5453 5449 5447 5445 5443 5442 5440 5436 5432 5430 5429 5427 5426 5425 5423 5422 5421 5419 5419 5416 5413 5410 5408 5407 5404 5403 5400 5399 5397 5394 5391 5391 5393 5396 5401 5406
5502 5489 5480 5475 5471 5467 5463 5457 5453 5449 5447 5445 5443 5443 5441 5439 5435 5432 5429 5429 5428 5427 5426 5425 5424 5423 5423 5421 5415 5414 5414 5412 5411 5410 5408 5406 5403 5402 5403 5402 5404 5406 5408 5412
5500 5488 5479 5475 5472 5469 5465 5459 5454 5449 5448 5444 5443 5442 5441 5439 5437 5434 5433 5432 5431 5430 5429 5428 5428 5428 5426 5424 5421 5420 5419 5418 5417 5415 5413 5412 5411 5412 5411 5411 5412 5414 5415 5419
5498 5486 5479 5474 5472 5468 5465 5461 5456 5452 5447 5443 5442 5442 5441 5441 5438 5437 5436 5434 5433 5432 5433 5431 5431 5430 5429 5427 5426 5425 5423 5421 5419 5418 5418 5417 5416 5415 5415 5416 5416 5418 5419 5420
5497 5486 5478 5473 5470 5467 5463 5459 5455 5451 5447 5444 5442 5440 5439 5439 5439 5438 5437 5436 5434 5434 5433 5431 5431 5431 5430 5429 5427 5426 5425 5425 5423 5423 5422 5421 5421 5420 5420 5420 5420 5420 5420 5421
5498 5489 5478 5472 5468 5465 5462 5457 5454 5450 5447 5444 5442 5439 5438 5437 5437 5437 5437 5436 5435 5433 5433 5433 5432 5431 5430 5429 5428 5427 5426 5424 5424 5424 5424 5422 5421 5420 5421 5421 5421 5422 5421 5421
5497 5488 5480 5473 5469 5464 5460 5457 5453 5450 5448 5445 5442 5440 5437 5435 5434 5434 5434 5434 5434 5433 5432 5430 5429 5428 5428 5428 5426 5425 5424 5423 5423 5422 5421 5421 5421 5420 5419 5419 5420 5420 5420 5420
5497 5490 5482 5476 5469 5464 5460 5456 5453 5451 5448 5445 5442 5439 5436 5433 5432 5431 5431 5432 5431 5431 5430 5429 5427 5426 5425 5424 5423 5423 5421 5420 5419 5418 5418 5417 5416 5416 5415 5416 5416 5416 5416 5416
5499 5492 5485 5478 5473 5467 5463 5459 5455 5451 5447 5445 5442 5439 5437 5433 5431 5429 5429 5428 5427 5427 5427 5426 5424 5422 5421 5419 5418 5416 5415 5414 5413 5412 5411 5410 5409 5409 5408 5408 5408 5408 5408 5409
5501 5493 5487 5482 5476 5471 5466 5461 5457 5453 5449 5446 5443 5440 5436 5433 5431 5429 5427 5426 5424 5424 5422 5421 5419 5418 5416 5414 5412 5410 5408 5406 5405 5403 5402 5401 5400 5399 5398 5398 5398 5398 5398 5398
5503 5496 5490 5484 5479 5474 5469 5465 5461 5457 5453 5449 5445 5442 5438 5435 5432 5429 5427 5424 5422 5419 5417 5415 5413 5410 5408 5405 5401 5398 5396 5394 5392 5391 5389 5388 5387 5386 5385 5384 5383 5383 5384 5384
Wind_Speed
64 66 69 68 69 69 71 72 72 73 74 75 75 75 76 72 64 64 61 61 62 62 64 66 67 68 68 72 72 70 70 71 70 67 64 63 63 60 49 53 55 59 57 55
71 71 71 71 73 75 75 76 79 79 80 81 81 81 79 78 74 67 59 54 55 58 62 66 68 70 70 70 71 71 70 69 73 73 67 60 56 44 56 48 51 55 56 57
74 76 74 72 74 76 80 82 83 83 85 85 83 80 70 61 54 48 43 42 44 51 56 60 64 67 69 72 73 73 74 76 75 77 73 70 68 60 59 63 56 54 64 63
79 77 73 74 77 81 84 87 88 87 80 71 60 48 40 34 27 25 25 27 28 33 39 42 45 49 55 56 57 54 59 66 67 72 75 77 76 70 68 70 66 71 58 68
78 74 75 79 83 86 87 85 79 68 57 44 37 25 20 19 21 23 23 27 25 26 26 25 27 28 28 32 29 30 26 36 39 54 57 55 69 77 75 67 69 74 76 73
74 75 79 84 88 89 84 71 59 50 38 24 24 33 30 29 32 25 28 30 29 24 24 24 22 21 20 19 21 22 25 25 25 37 29 24 46 65 70 75 70 72 80 75
75 79 84 88 89 82 67 56 47 33 31 28 32 35 31 39 31 22 14 14 17 15 15 16 15 14 14 11 10 13 16 16 15 17 12 26 28 25 34 41 58 85 77 74
79 84 89 89 82 65 53 44 32 29 29 34 35 31 24 21 15 12 11 11 11 14 16 12 8 6 6 10 11 6 5 10 17 20 22 25 21 27 29 31 41 49 75 86
83 88 89 84 70 53 42 38 29 27 28 28 25 16 17 14 12 8 12 13 13 14 9 8 9 10 11 11 3 7 9 13 18 22 26 30 31 31 26 32 42 29 46 69
87 89 87 74 58 42 37 29 27 24 24 21 15 15 13 16 14 11 9 11 8 9 9 8 8 8 11 8 7 13 13 15 22 25 32 34 34 27 23 31 30 34 37 43
88 87 77 66 49 38 31 25 24 24 20 19 18 17 18 18 17 13 9 3 2 7 7 8 9 10 8 12 15 19 19 17 19 23 23 26 24 20 26 27 29 29 26 28
87 82 69 55 43 35 26 24 23 21 20 18 14 15 18 19 20 16 11 10 9 3 2 6 9 10 10 13 21 21 21 17 16 15 11 10 10 16 14 25 17 20 18 15
83 73 63 44 37 31 24 21 18 18 17 14 15 17 18 23 19 15 8 10 5 5 5 5 5 15 16 17 16 18 16 14 14 11 11 4 7 9 15 20 16 10 6 9
76 65 54 37 32 27 23 19 17 16 14 14 17 18 24 21 19 14 13 9 5 4 6 8 11 14 15 14 15 9 11 10 10 13 8 6 6 6 9 7 3 14 18 15
68 59 47 33 27 29 26 19 17 16 13 11 16 20 21 19 14 13 12 10 7 6 4 6 8 8 13 16 11 17 20 23 14 22 20 10 7 9 7 10 6 11 17 18
64 55 40 31 27 27 27 21 16 15 12 11 14 18 15 16 13 10 8 7 5 5 6 8 11 11 12 12 18 25 28 29 31 26 27 17 22 23 11 8 14 14 16 19
61 51 35 27 26 29 30 28 22 15 12 10 13 15 12 13 13 9 7 9 13 12 13 14 14 15 11 13 17 23 22 22 22 20 19 16 14 16 19 18 16 19 27 26
58 49 31 23 24 27 30 33 30 24 18 12 10 12 12 12 12 14 11 11 15 18 19 18 14 18 15 9 19 19 19 20 19 15 13 12 16 15 11 15 17 17 23 26
56 47 30 22 21 24 28 30 29 27 23 15 10 9 11 12 13 15 17 13 14 14 16 15 10 20 10 12 15 13 11 11 14 16 15 15 11 8 8 10 11 11 19 16
53 45 30 22 22 24 26 26 24 22 18 17 12 9 9 8 8 10 11 12 9 9 11 9 8 14 7 9 10 11 11 11 12 12 11 10 9 6 4 3 5 9 14 18
51 45 32 25 22 24 25 24 21 18 14 11 10 11 10 10 8 9 10 9 10 10 9 8 9 11 11 9 4 5 6 9 8 6 3 1 2 2 2 3 5 8 9 10
46 42 36 26 22 21 21 21 19 17 15 15 13 13 11 11 11 11 10 10 10 10 10 8 7 9 10 11 11 7 5 5 6 5 4 5 4 4 4 5 6 7 8 10
45 40 34 26 21 20 19 18 17 16 13 12 13 14 13 11 11 12 13 13 12 11 11 12 12 11 11 10 11 11 13 13 12 11 11 10 10 10 9 9 10 11 11 12
42 38 33 28 25 23 22 20 18 16 15 15 15 15 15 13 10 9 11 13 14 14 14 14 15 16 18 19 18 16 14 15 16 18 19 18 18 17 17 17 17 17 17 17
39 36 32 29 27 25 22 21 19 18 18 17 17 17 15 13 11 10 10 11 14 16 17 18 19 20 21 22 24 25 25 25 24 24 24 24 24 25 25 25 26 26 26 26
37 34 31 29 27 26 25 24 23 21 20 19 17 15 15 14 14 13 12 12 13 16 18 21 23 26 27 29 30 30 31 31 32 33 34 34 35 34 34 34 33 33 33 34
34 31 30 28 28 27 26 25 24 23 22 22 21 21 20 19 17 15 14 14 15 17 18 20 22 25 28 31 33 35 36 38 39 40 41 42 42 43 44 45 45 45 44 44
Wind_Direction
327 325 324 325 323 320 315 309 306 305 304 301 297 296 296 294 290 287 282 277 271 267 264 263 261 260 259 261 260 258 258 259 254 249 251 251 251 248 250 252 252 249 246 240
329 326 324 321 319 316 314 311 309 306 302 300 298 295 294 292 292 292 287 279 271 266 260 259 257 256 255 257 258 257 257 255 256 254 250 248 240 237 242 240 244 240 242 237
326 324 320 319 318 317 315 310 307 305 303 301 299 298 298 297 293 288 280 273 264 258 256 255 255 254 253 253 254 254 254 252 252 252 249 245 239 234 234 238 229 239 237 237
322 320 321 320 319 316 313 311 310 307 305 305 306 308 309 308 305 296 293 283 275 270 266 264 264 263 261 262 264 266 264 260 255 252 249 244 240 239 228 235 236 233 234 240
323 324 323 322 319 318 316 314 313 312 315 318 316 316 312 300 292 294 292 289 290 285 280 276 274 273 272 271 265 270 272 276 270 265 259 258 254 242 235 232 238 239 239 233
327 325 325 323 322 321 319 320 319 321 326 327 326 309 308 306 300 292 289 287 288 292 284 276 276 283 278 279 266 270 276 277 274 274 280 272 262 259 254 243 232 231 232 237
328 327 327 326 326 326 327 326 328 322 319 309 306 310 309 312 315 313 309 302 303 309 314 303 289 293 295 290 278 290 278 275 279 300 273 265 281 267 261 258 245 241 234 230
331 331 330 329 329 332 329 332 328 317 310 306 313 317 322 328 327 326 328 321 329 316 326 322 326 330 333 324 320 299 292 303 289 289 274 276 276 278 278 274 256 237 238 234
333 333 331 332 336 336 335 338 329 323 320 327 340 359 355 5 5 336 340 339 315 317 335 349 351 355 331 326 267 262 280 240 255 266 269 275 285 289 272 276 275 261 236 230
335 334 333 336 341 341 339 340 336 332 336 350 8 6 1 354 357 348 335 334 344 355 353 354 360 335 323 336 313 265 285 272 267 271 278 280 285 295 288 267 278 261 255 242
336 335 336 341 344 346 340 340 338 342 351 354 3 1 359 350 349 351 349 345 5 324 352 340 322 318 357 319 302 316 315 292 274 280 286 281 291 288 291 280 272 274 256 235
338 336 339 345 346 350 342 341 341 347 358 354 1 0 0 357 343 334 326 294 265 252 287 291 316 301 309 306 309 317 310 300 303 318 303 322 346 346 345 313 294 247 225 237
339 339 342 347 347 350 346 347 351 353 355 359 2 14 356 350 347 353 359 301 296 209 239 275 292 308 334 334 340 349 348 338 340 337 314 4 344 349 334 320 320 250 183 219
339 341 345 350 352 357 355 353 350 357 359 359 15 10 7 5 358 10 24 39 44 334 331 327 322 325 342 352 359 17 37 34 37 34 17 36 350 12 66 44 308 116 98 123
342 343 345 352 359 8 4 357 351 359 1 4 14 13 14 2 16 28 34 37 47 35 352 347 350 9 8 9 25 82 67 57 81 58 68 96 100 118 73 84 185 157 147 147
344 345 344 350 1 3 11 3 349 355 2 9 14 14 19 15 24 30 35 25 30 16 44 67 62 43 31 8 46 50 37 33 37 35 34 31 43 28 63 115 177 190 144 137
346 347 344 347 357 359 2 10 8 354 351 357 12 12 19 25 35 31 9 37 63 73 71 74 61 48 30 22 50 51 44 42 40 28 19 4 25 47 58 75 88 123 147 156
347 349 344 345 351 353 354 357 358 4 358 350 352 359 4 19 40 59 70 79 72 54 47 42 44 34 9 27 45 42 40 36 39 54 66 61 54 56 72 95 101 124 136 140
349 351 347 339 338 337 345 349 349 349 350 345 335 335 348 3 12 30 43 50 45 36 26 20 22 351 339 47 50 43 37 39 43 41 36 40 49 62 78 103 117 140 144 151
350 353 349 337 328 329 336 339 345 341 335 337 332 319 318 338 357 7 20 22 16 3 4 17 339 346 11 44 42 40 33 28 29 24 19 27 31 37 64 113 149 163 167 158
353 354 353 344 334 329 331 339 341 341 337 335 334 323 307 303 319 336 348 5 6 12 20 8 15 7 338 334 351 29 27 9 359 4 356 20 112 118 136 167 183 182 179 168
355 354 356 354 344 336 338 339 347 352 358 351 342 338 324 301 288 293 307 325 328 335 340 351 349 349 348 336 317 301 308 317 316 313 294 281 271 250 223 218 219 220 213 203
358 358 360 358 355 352 347 348 351 354 355 353 351 345 337 323 297 281 279 291 301 310 317 322 324 318 313 311 320 302 291 288 287 287 283 279 274 264 256 249 244 242 239 236
1 2 4 6 9 10 7 3 358 360 1 358 356 354 348 339 325 295 276 273 283 291 294 293 293 296 298 297 297 296 290 284 280 278 275 273 269 267 266 263 259 258 256 252
3 6 10 12 14 18 18 16 12 9 5 358 353 352 352 352 348 330 306 285 277 278 280 284 287 287 286 285 286 287 285 283 281 277 276 275 272 269 266 263 262 262 261 261
5 10 14 15 18 19 21 21 19 17 15 13 8 1 359 358 354 349 337 319 303 292 285 282 282 282 282 283 283 282 281 280 279 279 278 276 274 274 273 270 267 265 264 263
4 13 17 19 21 22 23 23 22 21 20 19 17 17 15 13 9 360 348 336 325 317 310 304 299 295 292 290 288 286 283 280 278 276 275 274 272 271 270 270 270 269 267 266